Regional Weather Roundup
Issued by NWS

Home | Current Version | Previous Version | Graphics & Text | Print | Product List | Glossary On
Versions: 1 2 3 4 5 6 7 8 9 10 11 12 13 14 15 16 17 18 19 20 21 22 23 24 25 26 27 28 29 30 31 32 33 34 35 36 37 38 39 40 41 42 43 44 45 46 47 48 49 50
000
ASUS45 KTFX 120319
RWRMT
MONTANA HOURLY WEATHER ROUNDUP
NATIONAL WEATHER SERVICE GREAT FALLS MT
919 PM MDT FRI JUL 11 2014

NOTE: "FAIR" INDICATES FEW OR NO CLOUDS BELOW 12000 FEET WITH NO
SIGNIFICANT WEATHER AND/OR OBSTRUCTIONS TO VISIBILITY.

* THESE STATIONS ARE NOT UNDER NWS QUALITY CONTROL. THEY DO NOT
   REPORT WEATHER SUCH AS PRECIPITATION OR FOG.

MTZ001>007-043-120400-
WEST OF THE DIVIDE
CITY           SKY/WX    TMP DP  RH WIND       PRES   REMARKS
KALISPELL      CLEAR     75  57  54 CALM      30.04R
MISSOULA       PTCLDY    81  39  22 N9        30.03R
BUTTE          PTCLDY    75  48  39 NW7       30.16R
MULLAN PASS    PTCLDY    68  39  35 NW6       30.23R
* ESSEX        N/A       70  47  44 E2G7       N/A
* LINCOLN      N/A       74  47  38 NE11G20    N/A
* LOOKOUT PASS N/A       73  49  43 N/A        N/A
* POLSON       N/A       71  49  46 N/A        N/A
* RONAN APT    PTCLDY    77  46  33 N5         N/A
* SEELEY LAKE  N/A       80  41  25 NW6G15     N/A
* THOMP F APT  PTCLDY    71  45  39 NE3G18     N/A
* YAAK HILL    N/A       82  53  37 N/A        N/A
$$

MTZ008-052>055-120400-
SOUTHWEST MONTANA
CITY           SKY/WX    TMP DP  RH WIND       PRES   REMARKS
BOZEMAN        PTCLDY    73  54  51 SE15      30.09R
DILLON         MOCLDY    73  52  48 NE13      30.08R
W YELLOWSTONE  MOCLDY    63  50  63 E5        30.26R
* THREE FORKS  PTCLDY    77  63  62 N/A        N/A
* BOULDER HILL N/A       68  46  45 N11        N/A
* MONIDA PASS  N/A       67  43  42 SE16       N/A
* RAYNOLDS PAS N/A       62  40  45 SE4G9      N/A
* WHITEHALL    N/A       83  48  30 E4G14      N/A
* WISE RIVER   N/A       74  47  38 E12G18     N/A
$$

MTZ009>010-012-014-046-048-049-054-120400-
EAST SLOPES AND CENTRAL MONTANA
CITY           SKY/WX    TMP DP  RH WIND       PRES   REMARKS
CUT BANK       CLEAR     70  50  49 E6        30.15R
GREAT FALLS    CLEAR     70  54  57 NE7       30.13R
HELENA         CLEAR     75  54  48 N10       30.09R
MALMSTROM AFB  CLEAR     72  55  55 NE8       30.15R
* CONRAD       CLEAR     70  61  73 N/A        N/A
* DEARBORN     N/A       74  53  48 N8G17      N/A
* EAST GLACIER N/A       64  53  68 E6         N/A
* MONARCH      N/A       66  46  49 N9         N/A
* PENDROY      N/A       69  54  59 S4         N/A
* ROGERS PASS  N/A       61  49  65 S2         N/A
* SAINT MARY   N/A       72  53  51 SE5G13     N/A
* SWEET GRASS  N/A       67  57  70 E8         N/A
* WHITE SULPH  N/A       72  52  49 NE6G11     N/A
$$

MTZ011-013-016-021-035-040-045-047-050-051-120400-
NORTH CENTRAL MONTANA
CITY           SKY/WX    TMP DP  RH WIND       PRES   REMARKS
HAVRE          CLEAR     72  55  55 SE7       30.11R
LEWISTOWN      MOCLDY    73  52  48 E12       30.15R
* FORT BENTON  CLEAR     72  54  53 NE5       30.12R
* CHESTER      N/A       73  49  43 E4         N/A
* DENTON       N/A       73  51  46 NE9        N/A
* GEYSER       N/A       71  49  46 NE13       N/A
* JUDITH GAP   N/A       70  50  49 E9         N/A
* LOMA         N/A       69  55  61 NE9        N/A
$$

MTZ017>020-022>027-061-062-120400-
NORTHEAST MONTANA
CITY           SKY/WX    TMP DP  RH WIND       PRES   REMARKS
GLASGOW        MOCLDY    70  55  59 NE8       30.11R
GLENDIVE       MOCLDY    73  52  48 NE8       30.13R
JORDAN         CLEAR     73  52  48 NE10      30.12R
SIDNEY         MOCLDY    70  50  49 N6        30.14R
WOLF POINT     MOCLDY    72  54  53 NE6       30.11R
* BEAVER HILL  N/A       71  52  51 NE9        N/A
* CIRCLE       N/A       72  53  51 N/A        N/A
* LINDSAY DVD  N/A       68  56  66 N6         N/A
* NAVAJO       N/A       63  53  70 NW6        N/A
$$

MTZ028>042-056>058-120400-
SOUTHCENTRAL AND SOUTHEAST MONTANA
CITY           SKY/WX    TMP DP  RH WIND       PRES   REMARKS
BAKER          CLOUDY    72  55  55 E10       30.12S
BILLINGS       MOCLDY    73  54  51 NE16      30.11R
LIVINGSTON     PTCLDY    73  52  48 SE8       30.13R
MILES CITY     MOCLDY    73  54  51 NE14      30.09R
* LAUREL APT   MOCLDY    75  50  42 N6         N/A
* ROUNDUP APT  MOCLDY    73  48  41 NE6        N/A
* ALZADA       N/A       74  60  62 E3         N/A
* HYSHAM       N/A       72  49  44 E13G19     N/A
* LAME DEER    N/A       72  54  53 NE12G17    N/A
* REED POINT   N/A       77  55  47 N/A        N/A
* ROSCOE HILL  N/A       65  54  68 SW4        N/A
$$

REGIONAL REPORTS...DAKOTAS
CITY           SKY/WX    TMP DP  RH WIND       PRES   REMARKS
WILLISTON      MOCLDY    70  52  53 N6        30.11R
DICKINSON      CLOUDY    70  57  64 NE5       30.11S
CROSBY         CLEAR     64  57  78 NW5       30.11R
TIOGA          MOCLDY    63  61  93 CALM      30.16R
WATFORD CITY   PTCLDY    64  55  73 N5        30.10R
BISMARCK       CLOUDY    75  57  54 N5        30.07S
GRAND FORKS    CLEAR     66  57  73 NW7       29.99R
FARGO          CLEAR     73  59  62 NW8       29.99R
BUFFALO SD     CLOUDY    68  57  68 NE10      30.07R
RAPID CITY     CLOUDY    66  61  84 W7        30.13R
$$

REGIONAL REPORTS...WYOMING/IDAHO/WASHINGTON
CITY           SKY/WX    TMP DP  RH WIND       PRES   REMARKS
GILLETTE       LGT RAIN  64  59  84 SW5       30.17R
SHERIDAN       TSTM      68  57  68 SE6       30.12R
CODY           CLOUDY    68  55  63 S10       30.19S
YELLOWSTONE LA CLOUDY    55  46  72 CALM      30.40R
SALMON         MOCLDY    84  43  24 NE6       29.98R
MULLAN PASS    PTCLDY    68  39  35 NW6       30.23S
SAND POINT     CLEAR     73  54  51 CALM      29.98R
SPOKANE        PTCLDY    90  37  15 NE9       29.98R
$$

REGIONAL REPORTS...ALBERTA
CITY           SKY/WX    TMP DP  RH WIND       PRES   REMARKS
CALGARY        FAIR      66  50  56 S9        30.15R
LETHBRIDGE     FAIR      66  57  73 E7        30.13S
MEDICINE HAT   N/A       70  52  53 S3        30.12S
EDMONTON       FAIR      66  55  68 S6        30.06S
WATERTON GATE  N/A       66  57  73 NE3        N/A
CARDSTON       N/A       64  59  84 E5         N/A
MILK RIVER     N/A       64  54  70 E9         N/A
$$

REGIONAL REPORTS...SASKATCHEWAN
CITY           SKY/WX    TMP DP  RH WIND       PRES   REMARKS
SWIFT CURRENT  CLEAR     63  52  68 W5        30.13R
REGINA         FAIR      63  54  73 W7        30.09R
VAL MARIE      N/A       63  55  75 NE5        N/A
ASSINIBOIA     N/A       59  54  84 W3         N/A
CORONACH       N/A       61  54  78 NW3        N/A

$$




USA.gov is the U.S. government's official web portal to all federal, state and local government web resources and services.